When you browse on this site, cookies collect data to enhance your experience and personalize the content and advertising you see.
Visit our Privacy Policy to learn more. By continuing to use the site, you agree to this use of cookies and data.

Stündliche Wetter Dülmen

Heute, 7 August, Freitag

Zeit Temperatur Niederschläge Wind Luftdruck Luftfeuchtigkeit
00:00 +21°C° 0 mm 2 m/S 758 mmHg 55%
01:00 +21°C° 0 mm 2 m/S 758 mmHg 56%
02:00 +21°C° 0 mm 2 m/S 758 mmHg 56%
03:00 +21°C° 0 mm 1 m/S 758 mmHg 57%
04:00 +22°C° 0 mm 1 m/S 758 mmHg 58%
05:00 +22°C° 0 mm 1 m/S 758 mmHg 58%
06:00 +23°C° 0 mm 1 m/S 759 mmHg 58%
07:00 +25°C° 0 mm 1 m/S 759 mmHg 53%
08:00 +27°C° 0 mm 1 m/S 759 mmHg 48%
09:00 +29°C° 0 mm 1 m/S 759 mmHg 43%
10:00 +30°C° 0 mm 1 m/S 759 mmHg 39%
11:00 +31°C° 0 mm 1 m/S 758 mmHg 36%
12:00 +32°C° 0 mm 1 m/S 758 mmHg 33%
13:00 +32°C° 0 mm 1 m/S 758 mmHg 32%
14:00 +33°C° 0 mm 1 m/S 758 mmHg 30%
15:00 +33°C° 0 mm 1 m/S 757 mmHg 29%
16:00 +32°C° 0 mm 2 m/S 757 mmHg 34%
17:00 +30°C° 0 mm 2 m/S 757 mmHg 39%
18:00 +29°C° 0 mm 2 m/S 757 mmHg 44%
19:00 +28°C° 0 mm 2 m/S 757 mmHg 47%
20:00 +26°C° 0 mm 2 m/S 758 mmHg 50%
21:00 +25°C° 0 mm 2 m/S 758 mmHg 54%
22:00 +24°C° 0 mm 2 m/S 758 mmHg 56%
23:00 +24°C° 0 mm 1 m/S 758 mmHg 59%

Morgen, 8 August, Samstag

Zeit Temperatur Niederschläge Wind Luftdruck Luftfeuchtigkeit
00:00 +23°C° 0 mm 1 m/S 758 mmHg 62%
01:00 +23°C° 0 mm 1 m/S 758 mmHg 64%
02:00 +22°C° 0 mm 1 m/S 758 mmHg 65%
03:00 +22°C° 0 mm 1 m/S 758 mmHg 67%
04:00 +21°C° 0 mm 0 m/S 758 mmHg 65%
05:00 +22°C° 0 mm 0 m/S 758 mmHg 64%
06:00 +23°C° 0 mm 0 m/S 758 mmHg 62%
07:00 +25°C° 0 mm 0 m/S 758 mmHg 56%
08:00 +27°C° 0 mm 0 m/S 758 mmHg 51%
09:00 +29°C° 0 mm 0 m/S 758 mmHg 45%
10:00 +32°C° 0 mm 1 m/S 758 mmHg 42%
11:00 +33°C° 0 mm 1 m/S 758 mmHg 38%
12:00 +34°C° 0 mm 1 m/S 757 mmHg 35%
13:00 +34°C° 0 mm 1 m/S 757 mmHg 34%
14:00 +35°C° 0 mm 2 m/S 757 mmHg 33%
15:00 +35°C° 0 mm 2 m/S 757 mmHg 33%
16:00 +34°C° 0 mm 2 m/S 757 mmHg 38%
17:00 +31°C° 0 mm 3 m/S 757 mmHg 44%
18:00 +30°C° 0 mm 3 m/S 757 mmHg 50%
19:00 +29°C° 0 mm 3 m/S 757 mmHg 54%
20:00 +27°C° 0 mm 3 m/S 757 mmHg 59%
21:00 +26°C° 0 mm 3 m/S 758 mmHg 64%
22:00 +26°C° 0 mm 3 m/S 758 mmHg 67%
23:00 +25°C° 0 mm 3 m/S 757 mmHg 69%

übermorgen, 9 August, Sonntag

Zeit Temperatur Niederschläge Wind Luftdruck Luftfeuchtigkeit
00:00 +24°C° 0 mm 3 m/S 757 mmHg 72%
01:00 +24°C° 0 mm 3 m/S 757 mmHg 74%
02:00 +24°C° 0 mm 3 m/S 757 mmHg 76%
03:00 +23°C° 0 mm 2 m/S 757 mmHg 78%
04:00 +22°C° 0 mm 3 m/S 757 mmHg 77%
05:00 +24°C° 0 mm 3 m/S 757 mmHg 75%
06:00 +24°C° 0 mm 3 m/S 757 mmHg 74%
07:00 +26°C° 0 mm 3 m/S 757 mmHg 68%
08:00 +28°C° 0 mm 3 m/S 757 mmHg 62%
09:00 +30°C° 0 mm 3 m/S 757 mmHg 56%
10:00 +31°C° 0 mm 3 m/S 757 mmHg 52%
11:00 +33°C° 0 mm 3 m/S 757 mmHg 47%
12:00 +34°C° 0 mm 3 m/S 757 mmHg 42%
13:00 +35°C° 0 mm 4 m/S 756 mmHg 42%
14:00 +35°C° 0 mm 4 m/S 756 mmHg 41%
15:00 +35°C° 0 mm 4 m/S 756 mmHg 41%
16:00 +33°C° 0 mm 4 m/S 756 mmHg 45%
17:00 +32°C° 0 mm 4 m/S 756 mmHg 50%
18:00 +30°C° 0 mm 3 m/S 756 mmHg 55%
19:00 +29°C° 0 mm 3 m/S 756 mmHg 58%
20:00 +27°C° 0 mm 3 m/S 756 mmHg 62%
21:00 +26°C° 0 mm 3 m/S 756 mmHg 65%
22:00 +25°C° 0 mm 3 m/S 756 mmHg 69%
23:00 +25°C° 0 mm 3 m/S 756 mmHg 72%

10 August, Montag

Zeit Temperatur Niederschläge Wind Luftdruck Luftfeuchtigkeit
00:00 +24°C° 0 mm 3 m/S 756 mmHg 76%
01:00 +22°C° 0 mm 3 m/S 756 mmHg 77%
02:00 +22°C° 0 mm 3 m/S 756 mmHg 79%
03:00 +22°C° 0 mm 3 m/S 756 mmHg 81%
04:00 +22°C° 0 mm 3 m/S 756 mmHg 79%
05:00 +24°C° 0 mm 3 m/S 756 mmHg 77%
06:00 +24°C° 0 mm 3 m/S 756 mmHg 75%
07:00 +26°C° 0 mm 3 m/S 756 mmHg 68%
08:00 +28°C° 0 mm 3 m/S 756 mmHg 60%
09:00 +30°C° 0 mm 4 m/S 756 mmHg 53%
10:00 +31°C° 0 mm 3 m/S 756 mmHg 49%
11:00 +33°C° 0 mm 3 m/S 756 mmHg 45%
12:00 +34°C° 0 mm 3 m/S 756 mmHg 41%
13:00 +34°C° 0 mm 4 m/S 755 mmHg 41%
14:00 +34°C° 0 mm 4 m/S 755 mmHg 41%
15:00 +34°C° 0 mm 4 m/S 755 mmHg 41%
16:00 +33°C° 0 mm 4 m/S 755 mmHg 45%
17:00 +32°C° 0 mm 4 m/S 755 mmHg 50%
18:00 +30°C° 0 mm 4 m/S 755 mmHg 54%
19:00 +29°C° 0 mm 4 m/S 755 mmHg 57%
20:00 +27°C° 0 mm 3 m/S 756 mmHg 61%
21:00 +26°C° 0 mm 3 m/S 756 mmHg 65%
22:00 +25°C° 0 mm 3 m/S 756 mmHg 67%
23:00 +25°C° 0 mm 3 m/S 756 mmHg 70%

11 August, Dienstag

Zeit Temperatur Niederschläge Wind Luftdruck Luftfeuchtigkeit
00:00 +24°C° 0 mm 3 m/S 756 mmHg 72%
01:00 +24°C° 0 mm 3 m/S 756 mmHg 74%
02:00 +22°C° 0 mm 3 m/S 756 mmHg 75%
03:00 +23°C° 0 mm 2 m/S 756 mmHg 77%
04:00 +22°C° 0 mm 3 m/S 756 mmHg 75%
05:00 +24°C° 0 mm 3 m/S 756 mmHg 73%
06:00 +24°C° 0 mm 3 m/S 756 mmHg 72%
07:00 +26°C° 0 mm 3 m/S 756 mmHg 65%
08:00 +28°C° 0 mm 3 m/S 756 mmHg 59%
09:00 +30°C° 0 mm 3 m/S 756 mmHg 52%
10:00 +31°C° 0 mm 3 m/S 756 mmHg 48%
11:00 +33°C° 0 mm 3 m/S 756 mmHg 44%
12:00 +34°C° 0 mm 3 m/S 755 mmHg 40%
13:00 +34°C° 0 mm 4 m/S 755 mmHg 40%
14:00 +34°C° 0 mm 4 m/S 755 mmHg 39%
15:00 +34°C° 0 mm 4 m/S 755 mmHg 39%
16:00 +33°C° 0 mm 4 m/S 755 mmHg 43%
17:00 +32°C° 0 mm 4 m/S 755 mmHg 47%
18:00 +30°C° 0 mm 4 m/S 755 mmHg 51%
19:00 +28°C° 0 mm 4 m/S 755 mmHg 52%
20:00 +27°C° 0 mm 5 m/S 755 mmHg 53%
21:00 +26°C° 0 mm 5 m/S 755 mmHg 54%
22:00 +25°C° 0 mm 5 m/S 755 mmHg 57%
23:00 +25°C° 0 mm 4 m/S 755 mmHg 59%

12 August, Mittwoch

Zeit Temperatur Niederschläge Wind Luftdruck Luftfeuchtigkeit
00:00 +23°C° 0 mm 4 m/S 755 mmHg 61%
01:00 +22°C° 0 mm 3 m/S 755 mmHg 65%
02:00 +21°C° 0 mm 3 m/S 755 mmHg 68%
03:00 +20°C° 0 mm 3 m/S 755 mmHg 72%
04:00 +21°C° 0 mm 4 m/S 755 mmHg 72%
05:00 +21°C° 0 mm 4 m/S 755 mmHg 71%
06:00 +21°C° 0 mm 4 m/S 755 mmHg 71%
07:00 +23°C° 0 mm 4 m/S 755 mmHg 64%
08:00 +26°C° 0 mm 4 m/S 755 mmHg 57%
09:00 +28°C° 0 mm 5 m/S 755 mmHg 50%
10:00 +29°C° 0 mm 4 m/S 755 mmHg 46%
11:00 +30°C° 0 mm 4 m/S 754 mmHg 42%
12:00 +32°C° 0 mm 4 m/S 754 mmHg 37%
13:00 +33°C° 0 mm 4 m/S 754 mmHg 37%
14:00 +33°C° 0 mm 4 m/S 754 mmHg 36%
15:00 +33°C° 0 mm 4 m/S 753 mmHg 35%
16:00 +32°C° 0 mm 4 m/S 753 mmHg 39%
17:00 +30°C° 0 mm 4 m/S 753 mmHg 43%
18:00 +28°C° 0 mm 5 m/S 753 mmHg 47%
19:00 +27°C° 0 mm 5 m/S 753 mmHg 49%
20:00 +26°C° 0 mm 5 m/S 753 mmHg 52%
21:00 +25°C° 0 mm 5 m/S 753 mmHg 54%
22:00 +23°C° 0 mm 4 m/S 753 mmHg 55%
23:00 +22°C° 0 mm 4 m/S 753 mmHg 56%
Mehr zeigen